ハグ-ベル彗星

178P/Hug-Bell (2020)

English version
Home page
Updated on January 12, 2021

---------------------------------------------------------------------

・ プロフィール

・ 写真集

・ 軌道要素

Epoch 2020 July 10.0 TT = JDT 2459040.5
T 2020 July 16.60757 TT                                 MPC
q   1.8812717            (2000.0)            P               Q
n   0.14248681     Peri.  297.78453     +0.74249904     -0.64306715
a   3.6303871      Node   102.87423     +0.66209992     +0.66211936
e   0.4817986      Incl.   11.08965     +0.10158183     +0.38478903
P   6.92
From 603 observations 1999 Oct. 10-2014 Feb. 2, mean residual 0".7.
     Nongravitational parameters A1 = +0.13, A2 = -0.0203.

・ 光度変化

        m1 = 13.5 + 5 logΔ + 10.0 log r

---------------------------------------------------------------------

軌道要素はM.P.E.C. 2014-C43に掲載されたものです。
光度グラフはComet for Windowsで作成したものです。

---------------------------------------------------------------------

Copyright(C) Seiichi Yoshida (comet@aerith.net). All rights reserved.